This is the latest recevied weather packets stored in our database for station/object KD4EED. If no packets are shown the sender has not sent any weather packets the latest 10 day(s).
| Time | Temp. | Humidity | Pressure | Rain* | Wind** | Luminosity | Snow |
|---|---|---|---|---|---|---|---|
| 1777776114 | 16.67° C | 79% | 1008.4 hPa | - | - | 1 W/m² | - |
| 1777775810 | 16.67° C | 79% | 1008.6 hPa | - | - | 2 W/m² | - |
| 1777775507 | 17.22° C | 78% | 1008.5 hPa | - | - | 3 W/m² | - |
| 1777775203 | 17.22° C | 77% | 1008.5 hPa | - | - | 5 W/m² | - |
| 1777774903 | 17.22° C | 78% | 1008.2 hPa | - | - | 7 W/m² | - |
| 1777774600 | 17.22° C | 77% | 1008.2 hPa | - | - | 8 W/m² | - |
| 1777774296 | 17.22° C | 77% | 1008.3 hPa | - | - | 10 W/m² | - |
| 1777773994 | 17.22° C | 76% | 1008.2 hPa | - | - | 12 W/m² | - |
| 1777773691 | 17.78° C | 75% | 1008.4 hPa | - | - | 17 W/m² | - |
| 1777773388 | 17.78° C | 74% | 1008.3 hPa | - | - | 23 W/m² | - |
| 1777773085 | 17.78° C | 74% | 1008.4 hPa | - | - | 25 W/m² | - |
| 1777772780 | 17.78° C | 73% | 1008.4 hPa | - | - | 31 W/m² | - |
| 1777772478 | 18.33° C | 72% | 1008.5 hPa | - | - | 39 W/m² | - |
| 1777772175 | 18.89° C | 71% | 1008.3 hPa | - | - | 47 W/m² | - |
| 1777771874 | 18.89° C | 70% | 1008.3 hPa | - | - | 47 W/m² | - |
| 1777771571 | 18.89° C | 69% | 1008.2 hPa | - | - | 46 W/m² | - |
| 1777771267 | 19.44° C | 69% | 1008.2 hPa | - | - | 65 W/m² | - |
| 1777770963 | 19.44° C | 70% | 1008.3 hPa | - | - | 78 W/m² | - |
| 1777770661 | 19.44° C | 68% | 1008.2 hPa | - | - | 91 W/m² | - |
| 1777770357 | 20° C | 66% | 1008.2 hPa | - | - | 63 W/m² | - |
| 1777770055 | 20.56° C | 64% | 1008.2 hPa | - | - | 93 W/m² | - |
| 1777769751 | 20.56° C | 64% | 1008.1 hPa | - | - | 117 W/m² | - |
| 1777769449 | 20.56° C | 64% | 1008.1 hPa | - | - | 128 W/m² | - |
| 1777769145 | 21.11° C | 63% | 1008.1 hPa | - | - | 136 W/m² | - |
| 1777768843 | 21.11° C | 63% | 1008.1 hPa | - | - | 184 W/m² | - |
* Rain since midnight (hover to see other rain measurements)
** Current wind speed in m/s (hover to see current wind gust speed)